Location: Unspecified
(0.0000°N, 0.0000°E)
Time: 14:45:14

N. Korean satellite - Pass Details

Date: 21 March 2018
Orbit: 460 x 512 km, 97.2° (Epoch: 17 March)

Event Time Altitude Azimuth Distance (km) Brightness Sun altitude
Rises 05:19:47 0° 49° (NE) 2,565 11.1 -11.9°
Reaches altitude 10° 05:23:47 10° 94° (E) 1,672 10.9 -10.9°
Maximum altitude 05:24:14 10° 101° (E) 1,659 10.7 -10.8°
Drops below altitude 10° 05:24:42 10° 108° (ESE) 1,669 10.6 -10.6°
Sets 05:28:39 0° 153° (SSE) 2,536 10.6 -9.7°
